Marietta, GA

7:25 PM EST on January 20, 2017 (GMT -0500)
Dobbins Air Force Base

Weather History for KMGE - January, 2014

Change the Weather History Date:

Friday, January 10, 2014

  Actual Average Record
Temperature  
Mean Temperature 43 °F -  
Max Temperature 48 °F 50 °F 69 °F (2006)
Min Temperature 38 °F 32 °F 18 °F (2015)
Degree Days  
Heating Degree Days 22    
Moisture  
Dew Point 42 °F    
Average Humidity 97    
Maximum Humidity 100    
Minimum Humidity 70    
Precipitation  
Precipitation 0.23 in - - ()
Sea Level Pressure  
Sea Level Pressure 30.21 in    
Wind  
Wind Speed 6 mph (East)    
Max Wind Speed 10 mph    
Max Gust Speed 18 mph    
Visibility 4 miles    
Events Fog , Rain    
Averages and records for this station are not official NWS values.
T = Trace of Precipitation, MM = Missing Value Source: NWS Daily Summary

Daily Weather History Graph

Daily Weather History Graph

Search for Another Location

Airport or City:

Trip Planner

Search our weather history database for the weather conditions in past years. The results will help you decide how hot, cold, wet, or windy it might be!

Date:

Astronomy

Jan. 10, 2014 Rise Set
Actual Time 7:43 AM EST 5:47 PM EST
Civil Twilight 7:16 AM EST 6:14 PM EST
Nautical Twilight 6:45 AM EST 6:45 PM EST
Astronomical Twilight 6:15 AM EST 7:16 PM EST
Moon 1:47 PM EST (1/10) 2:55 AM EST (1/10)
Length of Visible Light 10h 58m
Length of Day
10h 03m
Waxing Gibbous, 75% of the Moon is Illuminated
Jan 10
Waxing Gibbous
Jan 15
Full
Jan 24
Last Quarter
Jan 30
New
Feb 6
First Quarter

Hourly Weather History & Observations

Time (EST) Temp. Windchill Dew Point Humidity Pressure Visibility Wind Dir Wind Speed Gust Speed Precip Events Conditions
12:00 AM 41.0 °F 37.1 °F 32.0 °F 70% 30.36 in 10.0 mi East 5.8 mph - N/A   Overcast
12:25 AM 41.0 °F 36.4 °F 32.0 °F 70% 30.35 in 10.0 mi ENE 6.9 mph - N/A   Overcast
12:45 AM 41.0 °F 36.4 °F 32.0 °F 70% 30.34 in 10.0 mi East 6.9 mph - N/A   Overcast
12:58 AM 41.0 °F 36.4 °F 32.0 °F 70% 30.35 in 10.0 mi East 6.9 mph - N/A   Overcast
1:26 AM 41.0 °F 35.8 °F 35.6 °F 81% 30.32 in 10.0 mi East 8.1 mph 18.4 mph N/A Rain Light Rain
1:31 AM 41.0 °F 36.4 °F 35.6 °F 81% 30.32 in 9.0 mi East 6.9 mph 18.4 mph N/A Rain Light Rain
1:41 AM 39.2 °F 33.6 °F 35.6 °F 87% 30.31 in 5.0 mi East 8.1 mph - N/A Rain Light Rain
1:56 AM 39.2 °F 35.0 °F 37.4 °F 93% 30.31 in 5.0 mi East 5.8 mph - N/A Rain Light Rain
1:58 AM 39.0 °F 34.0 °F 37.0 °F 93% 30.33 in 6.0 mi East 6.9 mph - 0.05 in Rain Light Rain
2:08 AM 39.2 °F 35.0 °F 37.4 °F 93% 30.30 in 7.0 mi East 5.8 mph - N/A Rain Light Rain
2:13 AM 39.2 °F 35.0 °F 37.4 °F 93% 30.30 in 10.0 mi Variable 5.8 mph - N/A   Light Drizzle
2:14 AM 39.2 °F 35.0 °F 37.4 °F 93% 30.30 in 10.0 mi East 5.8 mph - N/A   Overcast
2:29 AM 39.2 °F 34.2 °F 37.4 °F 93% 30.30 in 10.0 mi East 6.9 mph - N/A   Overcast
2:38 AM 39.2 °F 35.0 °F 37.4 °F 93% 30.30 in 8.0 mi Variable 5.8 mph - N/A Rain Light Rain
2:43 AM 39.2 °F 35.0 °F 37.4 °F 93% 30.30 in 6.0 mi East 5.8 mph - N/A Rain Light Rain
2:48 AM 39.2 °F 35.0 °F 37.4 °F 93% 30.30 in 5.0 mi East 5.8 mph - N/A Rain Light Rain
2:53 AM 39.2 °F 35.0 °F 37.4 °F 93% 30.30 in 5.0 mi East 5.8 mph - N/A   Light Drizzle
2:58 AM 39.2 °F 35.9 °F 37.4 °F 93% 30.32 in 5.0 mi Variable 4.6 mph - 0.02 in   Light Drizzle
3:13 AM 39.2 °F 35.0 °F 37.4 °F 93% 30.29 in 4.0 mi ENE 5.8 mph - N/A Rain Light Rain
3:18 AM 39.2 °F 33.6 °F 37.4 °F 93% 30.29 in 2.5 mi East 8.1 mph - N/A Rain Light Rain
3:28 AM 39.2 °F 35.9 °F 37.4 °F 93% 30.28 in 3.0 mi Variable 4.6 mph - N/A Rain Light Rain
3:33 AM 39.2 °F 35.0 °F 37.4 °F 93% 30.28 in 4.0 mi Variable 5.8 mph - N/A Rain Light Rain
3:38 AM 39.2 °F 35.9 °F 37.4 °F 93% 30.28 in 4.0 mi East 4.6 mph - N/A Rain Light Rain
3:54 AM 39.2 °F 35.9 °F 39.2 °F 100% 30.29 in 5.0 mi East 4.6 mph - N/A   Overcast
3:58 AM 38.7 °F 33.6 °F 38.5 °F 99% 30.31 in 5.0 mi East 6.9 mph - 0.07 in   Overcast
4:03 AM 39.2 °F - 39.2 °F 100% 30.28 in 5.0 mi Variable 2.3 mph - N/A   Overcast
4:13 AM 39.2 °F 35.9 °F 39.2 °F 100% 30.29 in 7.0 mi East 4.6 mph - N/A   Overcast
4:16 AM 39.2 °F 37.0 °F 39.2 °F 100% 30.28 in 7.0 mi East 3.5 mph - N/A Rain Light Rain
4:21 AM 39.2 °F 37.0 °F 39.2 °F 100% 30.28 in 5.0 mi ENE 3.5 mph - N/A Rain Light Rain
4:26 AM 39.2 °F 37.0 °F 39.2 °F 100% 30.28 in 5.0 mi East 3.5 mph - N/A   Light Drizzle
4:30 AM 39.2 °F 35.0 °F 39.2 °F 100% 30.28 in 6.0 mi East 5.8 mph - N/A   Overcast
4:34 AM 39.2 °F 35.9 °F 39.2 °F 100% 30.27 in 6.0 mi East 4.6 mph - N/A   Light Drizzle
4:39 AM 39.2 °F 37.0 °F 39.2 °F 100% 30.28 in 5.0 mi East 3.5 mph - N/A Rain Light Rain
4:47 AM 39.2 °F 35.9 °F 39.2 °F 100% 30.27 in 5.0 mi East 4.6 mph - N/A   Overcast
4:49 AM 39.2 °F 35.9 °F 39.2 °F 100% 30.27 in 5.0 mi ENE 4.6 mph - N/A   Light Drizzle
4:54 AM 39.2 °F 35.9 °F 39.2 °F 100% 30.27 in 4.0 mi East 4.6 mph - N/A   Light Drizzle
4:58 AM 39.0 °F 36.8 °F 38.8 °F 99% 30.29 in 4.0 mi East 3.5 mph - 0.02 in   Light Drizzle
5:09 AM 39.2 °F - 39.2 °F 100% 30.27 in 5.0 mi Variable 1.2 mph - N/A   Overcast
5:19 AM 39.2 °F 35.9 °F 39.2 °F 100% 30.27 in 6.0 mi ENE 4.6 mph - N/A Rain Light Rain
5:24 AM 39.2 °F 35.9 °F 39.2 °F 100% 30.27 in 5.0 mi East 4.6 mph - N/A Rain Light Rain
5:34 AM 39.2 °F - 39.2 °F 100% 30.27 in 6.0 mi Variable 1.2 mph - N/A   Light Drizzle
5:37 AM 39.2 °F - 39.2 °F 100% 30.27 in 7.0 mi Variable 1.2 mph - N/A   Overcast
5:52 AM 39.2 °F - 39.2 °F 100% 30.27 in 6.0 mi ENE 2.3 mph - N/A   Overcast
5:57 AM 39.2 °F 37.0 °F 39.2 °F 100% 30.26 in 7.0 mi Variable 3.5 mph - N/A   Overcast
5:58 AM 39.7 °F 36.5 °F 39.4 °F 99% 30.28 in 7.0 mi East 4.6 mph - 0.01 in   Overcast
5:59 AM 39.2 °F 35.9 °F 39.2 °F 100% 30.26 in 6.0 mi East 4.6 mph - N/A   Light Drizzle
6:04 AM 39.2 °F 37.0 °F 39.2 °F 100% 30.26 in 4.0 mi East 3.5 mph - N/A   Light Drizzle
6:11 AM 39.2 °F 35.9 °F 39.2 °F 100% 30.25 in 4.0 mi East 4.6 mph - N/A   Overcast
6:16 AM 39.2 °F 35.9 °F 39.2 °F 100% 30.25 in 5.0 mi East 4.6 mph - N/A   Overcast
6:21 AM 39.2 °F 35.0 °F 39.2 °F 100% 30.25 in 7.0 mi East 5.8 mph - N/A   Overcast
6:31 AM 39.2 °F 35.0 °F 39.2 °F 100% 30.25 in 5.0 mi East 5.8 mph - N/A   Overcast
6:36 AM 39.2 °F 35.9 °F 39.2 °F 100% 30.25 in 4.0 mi ENE 4.6 mph - N/A   Overcast
6:58 AM 40.1 °F 36.1 °F 39.9 °F 99% 30.27 in 2.0 mi East 5.8 mph - 0.00 in   Light Drizzle
7:38 AM 41.0 °F 39.0 °F 41.0 °F 100% 30.26 in 1.2 mi Variable 3.5 mph - N/A   Light Drizzle
7:50 AM 41.0 °F 36.4 °F 41.0 °F 100% 30.26 in 1.5 mi East 6.9 mph - N/A   Light Drizzle
7:58 AM 40.8 °F 36.2 °F 40.6 °F 99% 30.28 in 1.5 mi East 6.9 mph - 0.01 in   Light Drizzle
7:59 AM 41.0 °F 36.4 °F 41.0 °F 100% 30.26 in 2.0 mi East 6.9 mph - N/A   Light Drizzle
8:34 AM 41.0 °F 37.1 °F 41.0 °F 100% 30.26 in 1.5 mi Variable 5.8 mph - N/A   Light Drizzle
8:58 AM 41.9 °F 39.0 °F 41.7 °F 99% 30.28 in 1.5 mi ENE 4.6 mph - N/A   Light Drizzle
9:12 AM 42.8 °F 39.3 °F 42.8 °F 100% 30.26 in 1.2 mi Variable 5.8 mph - N/A   Light Drizzle
9:30 AM 42.8 °F 40.1 °F 42.8 °F 100% 30.26 in 1.5 mi East 4.6 mph - N/A   Light Drizzle
9:52 AM 42.8 °F 40.1 °F 42.8 °F 100% 30.26 in 2.2 mi East 4.6 mph - N/A   Light Drizzle
9:58 AM 43.2 °F 40.5 °F 43.0 °F 99% 30.28 in 2.2 mi Variable 4.6 mph - 0.00 in   Light Drizzle
10:05 AM 42.8 °F 39.3 °F 42.8 °F 100% 30.26 in 3.0 mi East 5.8 mph - N/A   Light Drizzle
10:56 AM 44.6 °F 42.2 °F 44.6 °F 100% 30.25 in 3.0 mi East 4.6 mph - N/A   Overcast
10:58 AM 44.4 °F 41.2 °F 44.4 °F 100% 30.28 in 3.0 mi East 5.8 mph - N/A   Overcast
11:04 AM 44.6 °F 41.4 °F 44.6 °F 100% 30.25 in 3.0 mi East 5.8 mph - N/A   Light Drizzle
11:22 AM 44.6 °F 40.7 °F 44.6 °F 100% 30.24 in 1.2 mi ENE 6.9 mph - N/A   Light Drizzle
11:49 AM 46.4 °F 44.3 °F 46.4 °F 100% 30.23 in 1.5 mi East 4.6 mph - N/A   Light Drizzle
11:58 AM 45.5 °F 43.2 °F 45.5 °F 100% 30.23 in 1.5 mi East 4.6 mph - N/A   Light Drizzle
12:29 PM 46.4 °F 42.9 °F 46.4 °F 100% 30.18 in 1.0 mi East 6.9 mph - N/A   Light Drizzle
12:37 PM 46.4 °F 44.3 °F 46.4 °F 100% 30.18 in 1.2 mi Variable 4.6 mph - N/A   Light Drizzle
12:52 PM 46.4 °F 44.3 °F 46.4 °F 100% 30.16 in 2.2 mi East 4.6 mph - N/A   Light Drizzle
12:58 PM 46.8 °F - 46.8 °F 100% 30.18 in 2.2 mi East 6.9 mph - 0.01 in   Light Drizzle
1:28 PM 48.2 °F - 48.2 °F 100% 30.14 in 3.0 mi East 5.8 mph - N/A   Overcast
1:41 PM 48.2 °F - 48.2 °F 100% 30.13 in 2.5 mi East 4.6 mph - N/A   Light Drizzle
1:56 PM 48.2 °F - 48.2 °F 100% 30.12 in 1.2 mi East 6.9 mph - N/A   Light Drizzle
1:58 PM 47.7 °F - 47.7 °F 100% 30.14 in 1.2 mi East 8.1 mph - N/A   Light Drizzle
2:16 PM 48.2 °F - 48.2 °F 100% 30.12 in 0.8 mi ESE 9.2 mph - N/A   Light Drizzle
2:21 PM 48.2 °F - 48.2 °F 100% 30.12 in 1.0 mi East 6.9 mph - N/A   Light Drizzle
2:32 PM 48.2 °F - 48.2 °F 100% 30.12 in 0.5 mi East 5.8 mph - N/A Fog Light Drizzle
2:37 PM 48.2 °F - 48.2 °F 100% 30.11 in 0.8 mi East 4.6 mph - N/A   Light Drizzle
2:46 PM 48.2 °F - 48.2 °F 100% 30.11 in 1.2 mi Variable 5.8 mph - N/A   Light Drizzle
2:58 PM 48.4 °F - 48.4 °F 100% 30.13 in 1.2 mi East 3.5 mph - N/A   Light Drizzle
3:41 PM 48.2 °F - 48.2 °F 100% 30.10 in 1.0 mi East 6.9 mph - N/A   Light Drizzle
3:58 PM 48.2 °F - 48.2 °F 100% 30.10 in 1.0 mi East 8.1 mph - N/A   Light Drizzle
4:58 PM 48.2 °F - 48.2 °F 100% 30.11 in 1.0 mi East 5.8 mph - N/A   Light Drizzle
5:21 PM 48.2 °F - 48.2 °F 100% 30.08 in 1.2 mi East 6.9 mph - N/A   Light Drizzle
5:58 PM 47.8 °F - 47.8 °F 100% 30.10 in 1.2 mi East 6.9 mph - N/A   Overcast
6:36 PM 48.2 °F - 48.2 °F 100% 30.08 in 1.2 mi East 10.4 mph - N/A   Light Drizzle
6:58 PM 47.7 °F - 47.7 °F 100% 30.10 in 1.2 mi East 8.1 mph - N/A   Light Drizzle
7:58 PM 47.5 °F - 47.5 °F 100% 30.09 in 1.2 mi East 10.4 mph - N/A   Light Drizzle
8:11 PM 48.2 °F - 48.2 °F 100% 30.06 in 0.8 mi ESE 10.4 mph - N/A   Light Drizzle
8:28 PM 48.2 °F - 48.2 °F 100% 30.07 in 1.2 mi East 9.2 mph - N/A   Light Drizzle
8:58 PM 48.2 °F - 48.2 °F 100% 30.08 in 1.2 mi ESE 6.9 mph - 0.00 in   Light Drizzle
9:35 PM 48.2 °F - 48.2 °F 100% 30.06 in 1.5 mi East 2.3 mph - N/A Rain Light Rain
9:58 PM 48.2 °F - 48.2 °F 100% 30.06 in 1.0 mi East 3.5 mph - 0.03 in   Overcast
10:02 PM 48.2 °F - 48.2 °F 100% 30.05 in 0.8 mi East 5.8 mph - N/A   Light Drizzle
10:20 PM 48.2 °F - 48.2 °F 100% 30.05 in 1.0 mi East 5.8 mph - N/A   Overcast
10:58 PM 47.5 °F - 47.5 °F 100% 30.04 in 1.0 mi East 6.9 mph - 0.01 in   Overcast
11:03 PM 48.2 °F - 48.2 °F 100% 30.04 in 1.5 mi East 6.9 mph - N/A   Overcast
11:08 PM 48.2 °F - 48.2 °F 100% 30.04 in 1.8 mi East 6.9 mph - N/A   Overcast
11:14 PM 48.2 °F - 48.2 °F 100% 30.03 in 1.8 mi East 6.9 mph - N/A Rain Light Rain
11:24 PM 48.2 °F - 48.2 °F 100% 30.03 in 2.0 mi ESE 6.9 mph - N/A   Overcast
11:34 PM 48.2 °F - 48.2 °F 100% 30.02 in 1.8 mi East 5.8 mph - N/A   Overcast
11:39 PM 48.2 °F - 48.2 °F 100% 30.02 in 2.0 mi East 4.6 mph - N/A   Overcast
11:44 PM 48.2 °F - 48.2 °F 100% 30.01 in 2.5 mi East 5.8 mph - N/A   Overcast
11:49 PM 48.2 °F - 48.2 °F 100% 30.01 in 3.0 mi East 6.9 mph - N/A   Overcast
11:58 PM 47.7 °F - 47.7 °F 100% 30.02 in 4.0 mi East 6.9 mph - 0.00 in   Overcast